Alexandria, Egypt

7:56 PM EET on September 30, 2016 (GMT +0200)
Alexandria International

Weather History for HEAX - September, 2013

Change the Weather History Date:

Monday, September 9, 2013

  Actual Average Record
Temperature  
Mean Temperature 82 °F -  
Max Temperature 87 °F 84 °F 93 °F (1998)
Min Temperature 76 °F 72 °F 66 °F (2006)
Cooling Degree Days 16    
Growing Degree Days 32 (Base 50)    
Moisture  
Dew Point 66 °F    
Average Humidity 62    
Maximum Humidity 78    
Minimum Humidity 46    
Precipitation  
Precipitation 0.00 in - - ()
Sea Level Pressure  
Sea Level Pressure 29.90 in    
Wind  
Wind Speed 9 mph ()    
Max Wind Speed 14 mph    
Max Gust Speed -    
Visibility 6.2 miles    
Events      
Averages and records for this station are not official NWS values.
T = Trace of Precipitation, MM = Missing Value Source: Averaged Metar Reports

Daily Weather History Graph

Daily Weather History Graph

Search for Another Location

Airport or City:

Trip Planner

Search our weather history database for the weather conditions in past years. The results will help you decide how hot, cold, wet, or windy it might be!

Date:

Astronomy

Sep. 09, 2013 Rise Set
Actual Time 5:40 AM EET 6:13 PM EET
Civil Twilight 5:16 AM EET 6:38 PM EET
Nautical Twilight 4:47 AM EET 7:06 PM EET
Astronomical Twilight 4:18 AM EET 7:35 PM EET
Moon 9:22 AM EET (9/9) 8:36 PM EET (9/9)
Length of Visible Light 13h 21m
Length of Day
12h 32m
Waxing Crescent, 16% of the Moon is Illuminated
Sep 9
Waxing Crescent
Sep 12
First Quarter
Sep 19
Full
Sep 27
Last Quarter
Oct 5
New

Hourly Weather History & Observations

Time (EET) Temp. Heat Index Dew Point Humidity Pressure Visibility Wind Dir Wind Speed Gust Speed Precip Events Conditions
12:00 AM 77.0 °F - 69.8 °F 78% 29.89 in - North 6.9 mph - N/A   Clear
1:00 AM 78.8 °F - 68.0 °F 69% 29.86 in - NNW 10.4 mph - N/A   Clear
2:00 AM 78 °F - 68 °F 63% 29.88 in 6 mi NNW 8.1 mph - -  
2:00 AM 77.0 °F - 68.0 °F 74% 29.86 in - NNW 8.1 mph - N/A   Clear
3:00 AM 77.0 °F - 68.0 °F 74% 29.86 in - NNW 6.9 mph - N/A   Clear
4:00 AM 77.0 °F - 66.2 °F 69% 29.86 in - NNW 6.9 mph - N/A   Clear
5:00 AM 77.0 °F - 66.2 °F 69% 29.86 in - NNW 8.1 mph - N/A   Clear
6:00 AM 77.0 °F - 64.4 °F 65% 29.86 in - NW 5.8 mph - N/A   Clear
7:00 AM 78.8 °F - 64.4 °F 61% 29.89 in - NW 10.4 mph - N/A   Clear
8:00 AM 81 °F - 64 °F 48% 29.90 in 6 mi NW 10.4 mph - -  
8:00 AM 80.6 °F 82.3 °F 64.4 °F 58% 29.89 in - NW 10.4 mph - N/A   Clear
9:00 AM 82.4 °F 83.9 °F 64.4 °F 54% 29.92 in - NW 12.7 mph - N/A   Clear
10:00 AM 84.2 °F 86.6 °F 66.2 °F 55% 29.92 in - NW 10.4 mph - N/A   Clear
11:00 AM 84.2 °F 86.6 °F 66.2 °F 55% 29.92 in 6.2 mi NNW 12.7 mph - N/A   Partly Cloudy
12:00 PM 86.0 °F 88.2 °F 66.2 °F 51% 29.92 in 6.2 mi NW 12.7 mph - N/A   Partly Cloudy
1:00 PM 84.2 °F 86.6 °F 66.2 °F 55% 29.92 in 6.2 mi NW 13.8 mph - N/A   Partly Cloudy
2:00 PM 85 °F - 67 °F 46% 29.91 in 6 mi NW 11.5 mph - -   Scattered Clouds
2:00 PM 84.2 °F 87.3 °F 68.0 °F 58% 29.89 in 6.2 mi NW 11.5 mph - N/A   Partly Cloudy
3:00 PM 84.2 °F 86.6 °F 66.2 °F 55% 29.89 in 6.2 mi NW 12.7 mph - N/A   Partly Cloudy
4:00 PM 82.4 °F 84.6 °F 66.2 °F 58% 29.89 in 6.2 mi NW 13.8 mph - N/A   Scattered Clouds
5:00 PM 80.6 °F 83.2 °F 68.0 °F 65% 29.89 in 6.2 mi NNW 12.7 mph - N/A   Scattered Clouds
6:00 PM 78.8 °F - 66.2 °F 65% 29.89 in 6.2 mi NW 11.5 mph - N/A   Scattered Clouds
7:00 PM 77.0 °F - 66.2 °F 69% 29.92 in 6.2 mi NNW 11.5 mph - N/A   Scattered Clouds
8:00 PM 77 °F - 65 °F 59% 29.94 in 6 mi NW 9.2 mph - -   Scattered Clouds
8:00 PM 77.0 °F - 66.2 °F 69% 29.92 in 6.2 mi NW 9.2 mph - N/A   Partly Cloudy
9:00 PM 77.0 °F - 66.2 °F 69% 29.95 in 6.2 mi NNW 8.1 mph - N/A   Partly Cloudy
11:00 PM 77.0 °F - 66.2 °F 69% 29.95 in 6.2 mi NNW 8.1 mph - N/A   Scattered Clouds